EW6070 Weather Reports


Display with metric or nautical units.
time (UTC)temp
F
wind
direction
speed
MPH
gust
MPH
rain 1hr
in
rain 24hr
in
rain mn
in
humidity
%
barometer
mb
20260504050008 0 0.0 0.0 0.00 0.00 0.00 1018.4
20260504044506 0 0.0 0.0 0.00 0.00 0.00 1018.2
20260504043109 0 0.0 0.0 0.00 0.00 0.00 1018.1
20260504041555 0 0.0 0.0 0.00 0.00 0.00 1018.1
20260504040053 0 0.0 0.0 0.00 0.00 0.00 1018.1
20260504034546 0 0.0 0.0 0.00 0.00 0.00 1018.0
20260504033042 0 0.0 0.0 0.00 0.00 0.00 1017.9
20260504031538 0 0.0 0.0 0.00 0.00 0.00 1017.8
20260504030032 0 0.0 0.0 0.00 0.00 0.00 1017.8
20260504024528 0 0.0 0.0 0.00 0.00 0.00 1017.8
20260504023025 0 0.0 0.0 0.00 0.00 0.00 1017.7
20260504021520 0 0.0 0.0 0.00 0.00 0.00 1017.7
20260504020017 51 339 0.0 0.0 0.00 0.00 0.00 46 1017.8
20260504014524 51 339 0.0 0.0 0.00 0.00 0.00 46 1017.8
20260504013014 51 339 0.0 0.0 0.00 0.00 0.00 46 1017.8
20260504011513 51 330 0.0 0.0 0.00 0.00 0.00 46 1017.7
20260504010010 51 320 0.0 0.0 0.00 0.00 0.00 45 1017.7
20260504004509 51 309 0.0 0.0 0.00 0.00 0.00 45 1017.7
20260504003008 51 294 0.0 0.0 0.00 0.00 0.00 45 1017.6
20260504001508 51 294 0.0 0.0 0.00 0.00 0.00 45 1017.6
20260504000015 51 294 0.0 0.0 0.00 0.00 0.00 45 1017.6
20260503234506 51 1 0.0 0.0 0.00 0.00 0.00 45 1017.7
20260503233006 51 0 0.0 0.0 0.00 0.00 0.00 45 1017.8
20260503231506 51 274 0.0 0.0 0.00 0.00 0.00 46 1017.9
20260503230005 51 275 0.0 0.0 0.00 0.00 0.00 45 1017.8
20260503224503 51 256 0.0 0.0 0.00 0.00 0.00 45 1017.7
20260503223003 51 313 0.0 0.0 0.00 0.00 0.00 45 1017.6
20260503221502 51 41 0.0 0.0 0.00 0.00 0.00 45 1017.7
20260503220106 51 51 0.0 0.0 0.00 0.00 0.00 45 1017.8
20260503214559 51 44 0.0 0.0 0.00 0.00 0.00 44 1017.9
20260503213057 51 320 0.0 0.0 0.00 0.00 0.00 44 1018.0
20260503211556 52 336 0.0 0.0 0.00 0.00 0.00 44 1017.9
20260503210057 52 356 0.0 0.0 0.00 0.00 0.00 44 1018.0
20260503204606 52 316 0.0 0.0 0.00 0.00 0.00 44 1018.1
20260503203100 52 301 0.0 0.0 0.00 0.00 0.00 44 1018.1
20260503201554 52 27 0.0 0.0 0.00 0.00 0.00 44 1018.2
20260503200052 53 298 0.0 0.0 0.00 0.00 0.00 44 1018.2
20260503194608 53 299 0.0 0.0 0.00 0.00 0.00 44 1018.1
20260503193051 53 316 0.0 0.0 0.00 0.00 0.00 43 1018.1
20260503191556 53 312 0.0 0.0 0.00 0.00 0.00 43 1018.1
20260503190058 53 278 0.0 0.0 0.00 0.00 0.00 42 1018.0
20260503184531 53 333 0.0 0.0 0.00 0.00 0.00 41 1017.9
20260503183057 53 330 0.0 0.0 0.00 0.00 0.00 41 1017.6
20260503181502 53 261 0.0 0.0 0.00 0.00 0.00 41 1017.3
20260503180108 54 275 0.0 0.0 0.00 0.00 0.00 40 1017.2
20260503174600 54 306 0.0 0.0 0.00 0.00 0.00 40 1017.0
20260503173203 54 304 0.0 0.0 0.00 0.00 0.00 40 1016.9
20260503171558 54 311 0.0 0.0 0.00 0.00 0.00 35 1016.7
20260503081528 0 0.0 0.0 0.00 0.00 0.00 1016.0
20260503071601 0 0.0 0.0 0.00 0.00 0.00 1016.0